IT9NKT-WX Weather Reports


Display with metric or nautical units.
time (UTC)temp
F
wind
direction
speed
MPH
gust
MPH
rain 1hr
in
rain 24hr
in
rain mn
in
humidity
%
barometer
mb
20260503001003 54 186 0.0 2.0 0.00 0.00 0.00 62 1023.2
20260503000712 54 188 0.0 2.0 0.00 0.00 0.00 63 1023.4
20260503000003 55 178 1.0 2.0 0.00 0.00 0.00 63 1023.5
20260502235504 55 175 1.0 2.0 0.00 0.00 0.00 63 1023.6
20260502235004 54 172 0.0 2.0 0.00 0.00 0.00 65 1023.6
20260502234503 55 188 0.0 1.0 0.00 0.00 0.00 66 1023.5
20260502234003 54 189 0.0 1.0 0.00 0.00 0.00 66 1023.6
20260502233503 55 188 0.0 1.0 0.00 0.00 0.00 67 1023.6
20260502233004 55 193 0.0 1.0 0.00 0.00 0.00 67 1023.6
20260502232503 55 192 0.0 1.0 0.00 0.00 0.00 66 1023.7
20260502232003 55 188 0.0 1.0 0.00 0.00 0.00 66 1023.9
20260502231504 55 182 0.0 1.0 0.00 0.00 0.00 66 1023.9
20260502231003 55 169 0.0 1.0 0.00 0.00 0.00 66 1023.8
20260502230504 55 175 0.0 1.0 0.00 0.00 0.00 66 1024.0
20260502230004 55 175 0.0 2.0 0.00 0.00 0.00 65 1023.8
20260502225503 55 176 1.0 2.0 0.00 0.00 0.00 65 1024.1
20260502225004 55 184 1.0 3.0 0.00 0.00 0.00 65 1024.2
20260502224503 55 182 1.0 3.0 0.00 0.00 0.00 65 1024.2
20260502224212 55 172 1.0 2.0 0.00 0.00 0.00 65 1024.0
20260502223504 55 174 1.0 2.0 0.00 0.00 0.00 66 1024.2
20260502223004 55 176 1.0 2.0 0.00 0.00 0.00 66 1024.2
20260502222503 55 175 0.0 1.0 0.00 0.00 0.00 66 1024.2
20260502222004 56 178 0.0 1.0 0.00 0.00 0.00 67 1024.2
20260502221503 56 189 0.0 1.0 0.00 0.00 0.00 66 1024.1
20260502221003 56 189 0.0 1.0 0.00 0.00 0.00 67 1024.1
20260502220503 56 189 0.0 1.0 0.00 0.00 0.00 67 1024.0
20260502220004 56 187 0.0 1.0 0.00 0.00 0.00 68 1024.1
20260502215503 56 181 0.0 1.0 0.00 0.00 0.00 68 1024.0
20260502215217 56 180 0.0 1.0 0.00 0.00 0.00 68 1024.1
20260502214503 56 176 0.0 1.0 0.00 0.00 0.00 68 1024.1
20260502214003 56 178 0.0 1.0 0.00 0.00 0.00 69 1024.1
20260502213716 56 177 0.0 1.0 0.00 0.00 0.00 69 1024.1
20260502213003 56 189 0.0 0.0 0.00 0.00 0.00 68 1024.1
20260502212504 56 175 0.0 1.0 0.00 0.00 0.00 68 1024.0
20260502212004 56 177 0.0 1.0 0.00 0.00 0.00 68 1024.1
20260502211504 56 174 0.0 2.0 0.00 0.00 0.00 68 1024.1
20260502211003 57 172 0.0 2.0 0.00 0.00 0.00 67 1023.9
20260502210503 57 180 0.0 1.0 0.00 0.00 0.00 68 1024.0
20260502210003 57 183 0.0 1.0 0.00 0.00 0.00 68 1024.1
20260502205503 57 177 0.0 1.0 0.00 0.00 0.00 68 1024.0
20260502205004 57 191 0.0 1.0 0.00 0.00 0.00 68 1024.0
20260502204504 57 197 0.0 1.0 0.00 0.00 0.00 68 1024.0
20260502204214 57 195 0.0 1.0 0.00 0.00 0.00 67 1024.1
20260502203503 58 338 0.0 2.0 0.00 0.00 0.00 67 1024.1
20260502203003 58 333 0.0 2.0 0.00 0.00 0.00 67 1024.3
20260502202504 58 166 0.0 1.0 0.00 0.00 0.00 67 1024.0
20260502202003 58 177 0.0 1.0 0.00 0.00 0.00 66 1024.2
20260502201503 58 209 0.0 1.0 0.00 0.00 0.00 66 1024.1
20260502201003 58 245 0.0 1.0 0.00 0.00 0.00 65 1024.0
20260502200503 58 0 0.0 0.0 0.00 0.00 0.00 64 1024.0
20260502200004 58 0 0.0 0.0 0.00 0.00 0.00 64 1024.1
20260502195504 59 192 0.0 0.0 0.00 0.00 0.00 64 1023.9
20260502195004 59 188 0.0 1.0 0.00 0.00 0.00 63 1024.0
20260502194717 59 182 0.0 1.0 0.00 0.00 0.00 63 1024.0
20260502194004 59 0 0.0 0.0 0.00 0.00 0.00 63 1023.7
20260502193503 59 0 0.0 0.0 0.00 0.00 0.00 63 1023.7
20260502193004 59 0 0.0 0.0 0.00 0.00 0.00 63 1023.6
20260502192503 59 0 0.0 0.0 0.00 0.00 0.00 62 1023.5
20260502192003 59 0 0.0 0.0 0.00 0.00 0.00 62 1023.7
20260502191503 59 0 0.0 0.0 0.00 0.00 0.00 61 1023.5
20260502191217 59 0 0.0 0.0 0.00 0.00 0.00 62 1023.4
20260502190503 60 193 0.0 1.0 0.00 0.00 0.00 61 1023.1
20260502190004 60 194 0.0 1.0 0.00 0.00 0.00 61 1023.2
20260502185504 60 196 0.0 1.0 0.00 0.00 0.00 61 1022.9
20260502185004 60 187 0.0 1.0 0.00 0.00 0.00 61 1022.9
20260502184503 60 191 0.0 1.0 0.00 0.00 0.00 61 1022.9
20260502184004 60 194 0.0 1.0 0.00 0.00 0.00 61 1022.9
20260502183504 60 189 0.0 1.0 0.00 0.00 0.00 62 1022.7
20260502183004 60 188 1.0 3.0 0.00 0.00 0.00 62 1022.7
20260502182714 60 190 1.0 3.0 0.00 0.00 0.00 62 1022.6
20260502182217 60 187 0.0 2.0 0.00 0.00 0.00 62 1022.4
20260502181503 60 182 1.0 3.0 0.00 0.00 0.00 62 1022.5
20260502181003 60 185 1.0 3.0 0.00 0.00 0.00 62 1022.5
20260502180504 60 194 1.0 3.0 0.00 0.00 0.00 62 1022.4
20260502170503 61 121 2.0 8.0 0.00 0.00 0.00 52 1021.9
20260502164003 62 109 2.0 7.0 0.00 0.00 0.00 51 1021.7
20260502163504 62 102 2.0 4.0 0.00 0.00 0.00 51 1021.7
20260502163003 62 98 2.0 7.0 0.00 0.00 0.00 51 1021.6
20260502162503 62 114 2.0 7.0 0.00 0.00 0.00 50 1021.6
20260502162004 62 129 3.0 6.0 0.00 0.00 0.00 51 1022.0
20260502161503 62 138 2.0 8.0 0.00 0.00 0.00 50 1021.7
20260502161004 63 140 2.0 8.0 0.00 0.00 0.00 51 1021.6
20260502160504 63 135 2.0 6.0 0.00 0.00 0.00 52 1021.6
20260502152003 63 167 2.0 7.0 0.00 0.00 0.00 53 1021.4
20260502151504 63 159 2.0 6.0 0.00 0.00 0.00 52 1021.5
20260502151004 63 185 3.0 8.0 0.00 0.00 0.00 52 1021.6
20260502150504 63 195 3.0 8.0 0.00 0.00 0.00 52 1021.5
20260502150216 63 164 3.0 7.0 0.00 0.00 0.00 52 1021.3
20260502130504 64 142 4.0 13.0 0.00 0.00 0.00 48 1021.7
20260502123717 64 83 4.0 11.0 0.00 0.00 0.00 50 1021.8
20260502123003 63 104 7.0 17.0 0.00 0.00 0.00 49 1021.6
20260502122503 63 115 6.0 17.0 0.00 0.00 0.00 50 1021.8
20260502122004 64 107 5.0 15.0 0.00 0.00 0.00 49 1021.6
20260502121503 64 98 5.0 15.0 0.00 0.00 0.00 50 1021.6
20260502121004 64 90 4.0 14.0 0.00 0.00 0.00 49 1021.5
20260502120715 64 82 4.0 13.0 0.00 0.00 0.00 49 1021.5
20260502115504 64 106 6.0 18.0 0.00 0.00 0.00 49 1021.3
20260502115003 65 108 5.0 18.0 0.00 0.00 0.00 50 1021.2
20260502114504 66 128 5.0 15.0 0.00 0.00 0.00 49 1021.1
20260502114003 65 124 6.0 15.0 0.00 0.00 0.00 53 1021.1
20260502113503 66 93 5.0 15.0 0.00 0.00 0.00 50 1021.1
20260502113004 65 92 4.0 15.0 0.00 0.00 0.00 53 1021.2
20260502112504 66 93 5.0 17.0 0.00 0.00 0.00 52 1021.1
20260502112004 65 97 5.0 17.0 0.00 0.00 0.00 53 1021.1
20260502111504 65 95 5.0 11.0 0.00 0.00 0.00 52 1021.4
20260502111003 64 104 6.0 17.0 0.00 0.00 0.00 52 1021.2
20260502110503 65 109 6.0 17.0 0.00 0.00 0.00 53 1021.3
20260502110004 65 86 5.0 14.0 0.00 0.00 0.00 52 1021.5
20260502105504 65 71 5.0 19.0 0.00 0.00 0.00 50 1021.0
20260502105003 65 66 4.0 19.0 0.00 0.00 0.00 47 1021.2
20260502104504 66 45 4.0 19.0 0.00 0.00 0.00 49 1021.0
20260502104003 66 46 5.0 19.0 0.00 0.00 0.00 46 1020.9
20260502103713 65 48 5.0 19.0 0.00 0.00 0.00 47 1021.1
20260502103003 65 57 3.0 17.0 0.00 0.00 0.00 47 1021.0
20260502102503 66 68 3.0 7.0 0.00 0.00 0.00 48 1021.1
20260502102003 65 74 6.0 19.0 0.00 0.00 0.00 49 1021.2
20260502101715 65 69 6.0 19.0 0.00 0.00 0.00 49 1021.2
20260502101003 66 63 5.0 15.0 0.00 0.00 0.00 44 1021.1
20260502100504 67 55 3.0 13.0 0.00 0.00 0.00 43 1021.0
20260502100214 67 52 2.0 9.0 0.00 0.00 0.00 45 1020.9
20260502091503 65 182 4.0 8.0 0.00 0.00 0.00 55 1020.8
20260502091004 64 166 3.0 8.0 0.00 0.00 0.00 54 1021.2
20260502090503 64 148 3.0 6.0 0.00 0.00 0.00 55 1021.2
20260502071503 66 183 1.0 4.0 0.00 0.00 0.00 47 1020.9
20260502071003 65 194 2.0 4.0 0.00 0.00 0.00 49 1021.1
20260502070504 65 192 1.0 4.0 0.00 0.00 0.00 48 1020.8
20260502070003 65 189 1.0 3.0 0.00 0.00 0.00 47 1021.1
20260502065714 65 321 1.0 7.0 0.00 0.00 0.00 43 1020.7
20260502065004 63 2 1.0 7.0 0.00 0.00 0.00 45 1021.0
20260502064504 64 84 0.0 2.0 0.00 0.00 0.00 47 1021.1
20260502064213 63 125 0.0 2.0 0.00 0.00 0.00 48 1021.0
20260502063504 63 179 1.0 2.0 0.00 0.00 0.00 47 1021.0
20260502063003 64 183 1.0 3.0 0.00 0.00 0.00 51 1021.0
20260502062503 63 180 1.0 3.0 0.00 0.00 0.00 54 1020.9
20260502062003 62 186 1.0 2.0 0.00 0.00 0.00 55 1020.8
20260502061503 61 184 1.0 2.0 0.00 0.00 0.00 54 1020.9
20260502061003 62 168 1.0 3.0 0.00 0.00 0.00 55 1020.9
20260502060503 62 183 1.0 3.0 0.00 0.00 0.00 55 1020.9
20260502060003 62 184 1.0 2.0 0.00 0.00 0.00 56 1021.0
20260502055714 61 183 1.0 2.0 0.00 0.00 0.00 56 1020.8
20260502055003 62 175 0.0 2.0 0.00 0.00 0.00 55 1020.9
20260502054504 61 181 0.0 2.0 0.00 0.00 0.00 55 1021.1
20260502054003 61 195 0.0 1.0 0.00 0.00 0.00 54 1020.9
20260502053504 60 196 1.0 2.0 0.00 0.00 0.00 56 1021.2
20260502053214 59 200 1.0 3.0 0.00 0.00 0.00 58 1021.0
20260502052503 58 199 2.0 4.0 0.00 0.00 0.00 59 1020.9
20260502052004 58 198 2.0 4.0 0.00 0.00 0.00 60 1021.0
20260502051503 57 199 2.0 3.0 0.00 0.00 0.00 61 1020.9
20260502051004 57 199 1.0 3.0 0.00 0.00 0.00 63 1021.0
20260502050714 57 196 1.0 3.0 0.00 0.00 0.00 63 1021.0
20260502050003 57 201 1.0 2.0 0.00 0.00 0.00 65 1021.1
20260502045504 57 321 1.0 3.0 0.00 0.00 0.00 63 1021.2
20260502045004 57 18 0.0 3.0 0.00 0.00 0.00 63 1021.2
20260502044504 56 169 0.0 2.0 0.00 0.00 0.00 62 1020.9
20260502044003 56 155 0.0 2.0 0.00 0.00 0.00 64 1021.1
20260502043503 55 112 1.0 4.0 0.00 0.00 0.00 65 1021.1
20260502043003 54 117 1.0 4.0 0.00 0.00 0.00 66 1021.0
20260502042504 53 171 0.0 2.0 0.00 0.00 0.00 69 1021.0
20260502042004 53 201 0.0 2.0 0.00 0.00 0.00 68 1021.0
20260502041503 53 182 0.0 2.0 0.00 0.00 0.00 68 1020.9
20260502041217 53 175 1.0 2.0 0.00 0.00 0.00 69 1021.0
20260502040503 53 172 1.0 2.0 0.00 0.00 0.00 68 1020.8
20260502040003 53 175 1.0 2.0 0.00 0.00 0.00 68 1021.0
20260502035503 53 186 0.0 2.0 0.00 0.00 0.00 68 1020.9
20260502035214 54 195 0.0 1.0 0.00 0.00 0.00 68 1020.7
20260502034503 54 249 1.0 2.0 0.00 0.00 0.00 67 1020.7
20260502034004 55 194 1.0 4.0 0.00 0.00 0.00 66 1020.5
20260502033504 57 167 1.0 4.0 0.00 0.00 0.00 61 1020.5
20260502033004 56 198 1.0 3.0 0.00 0.00 0.00 62 1020.5
20260502032503 56 205 0.0 2.0 0.00 0.00 0.00 63 1020.5
20260502032003 56 188 1.0 2.0 0.00 0.00 0.00 63 1020.6
20260502031504 56 186 1.0 3.0 0.00 0.00 0.00 63 1020.5
20260502031003 56 180 1.0 3.0 0.00 0.00 0.00 62 1020.6
20260502030504 56 50 0.0 2.0 0.00 0.00 0.00 62 1020.6
20260502030003 57 241 1.0 3.0 0.00 0.00 0.00 62 1020.7
20260502025504 55 212 1.0 3.0 0.00 0.00 0.00 62 1020.8
20260502025214 55 199 1.0 3.0 0.00 0.00 0.00 65 1021.0
20260502024717 54 186 0.0 2.0 0.00 0.00 0.00 66 1021.0
20260502024004 54 203 0.0 1.0 0.00 0.00 0.00 68 1020.9
20260502023504 54 209 0.0 2.0 0.00 0.00 0.00 67 1021.0
20260502023003 55 208 0.0 2.0 0.00 0.00 0.00 67 1020.9
20260502022504 55 203 1.0 2.0 0.00 0.00 0.00 67 1020.9
20260502022003 55 210 1.0 3.0 0.00 0.00 0.00 67 1020.9
20260502021715 55 211 1.0 3.0 0.00 0.00 0.00 65 1020.9
20260502021004 56 212 1.0 2.0 0.00 0.00 0.00 64 1021.0
20260502020503 56 239 1.0 3.0 0.00 0.00 0.00 63 1020.9
20260502020003 54 248 1.0 3.0 0.00 0.00 0.00 68 1021.1
20260502015504 54 214 1.0 3.0 0.00 0.00 0.00 70 1021.3
20260502015004 55 219 1.0 2.0 0.00 0.00 0.00 70 1021.2
20260502014503 55 251 0.0 2.0 0.00 0.00 0.00 69 1020.8
20260502014216 55 266 0.0 2.0 0.00 0.00 0.00 69 1021.1
20260502013714 55 191 0.0 1.0 0.00 0.00 0.00 69 1020.8
20260502013003 55 203 0.0 1.0 0.00 0.00 0.00 69 1020.8
20260502012504 55 218 0.0 1.0 0.00 0.00 0.00 69 1021.0
20260502012004 54 260 1.0 4.0 0.00 0.00 0.00 70 1021.0
20260502011504 54 252 1.0 4.0 0.00 0.00 0.00 70 1020.8
20260502011003 54 185 0.0 1.0 0.00 0.00 0.00 71 1021.0
20260502010504 54 242 0.0 3.0 0.00 0.00 0.00 71 1021.1
20260502010003 54 259 1.0 3.0 0.00 0.00 0.00 71 1021.0
20260502005503 54 230 0.0 2.0 0.00 0.00 0.00 72 1021.0
20260502005004 54 209 0.0 3.0 0.00 0.00 0.00 74 1021.1
20260502004503 55 200 1.0 3.0 0.00 0.00 0.00 75 1021.2
20260502004005 54 216 1.0 3.0 0.00 0.00 0.00 76 1021.2
20260502003503 54 236 1.0 3.0 0.00 0.00 0.00 78 1021.2
20260502003003 54 218 0.0 2.0 0.00 0.00 0.00 79 1021.0
20260502002715 54 216 0.0 2.0 0.00 0.00 0.00 80 1021.2
20260502002004 54 194 0.0 1.0 0.00 0.00 0.00 80 1021.2
20260502001716 54 185 0.0 1.0 0.00 0.00 0.00 80 1021.1
20260502001214 55 172 0.0 2.0 0.00 0.00 0.00 80 1021.1